Haast (NZHT)

Aerodrome — Elev 22
New Zealand
S043.51.50.300 E169.02.27.400
Loading chart...

Current Weather

NZHT 210000Z 31007KT 170V090 40KM FEW020 SCT040 BKN050 22/17 Q1017 RMK NZMF VATS

Published 41 minutes ago

Airport Activity

Loading chart...
Loading chart...

Positions

CallsignRadio Name / Freq / Voice Room / TypeFrequencyVoice RoomType
NZCH-D_CTR Christchurch Control
129.200
nzch-d_ctr
129.200nzch-d_ctr
NZCH-S_CTR Christchurch Control
129.300
nzch-s_ctr
129.300nzch-s_ctr
UNICOM NZZC UNICOM
122.800
unicom_nzzc
122.800unicom_nzzc

Charts

Other Charts

Haast